Location: Most
(50.5133°N, 13.6207°E)
Time: 08:48:45
(UTC+01:00)

Oscar 11 - Pass Details

Date: 02 December 2021
Orbit: 611 x 625 km, 97.6° (Epoch: 26 January)

Event Time Altitude Azimuth Distance (km) Brightness Sun altitude
Rises 05:20:32 0° 16° (NNE) 2,922 10.6 -22.1°
Reaches altitude 10° 05:22:47 10° 21° (NNE) 2,009 9.8 -21.8°
Maximum altitude 05:27:05 56° 100° (E) 747 7.7 -21.1°
Drops below altitude 10° 05:31:20 10° 179° (S) 1,985 9.8 -20.5°
Sets 05:33:32 0° 184° (S) 2,884 10.6 -20.1°
